Location: *
(49.3500°N, 12.6000°E)
Time: 08:42:32
(UTC+00:00)

Envisat - Pass Details

Date: 18 October 2019
Orbit: 764 x 766 km, 98.1° (Epoch: 18 November)

Event Time Altitude Azimuth Distance (km) Brightness Sun altitude
Rises 17:04:12 0° 165° (SSE) 3,222 6.1 -8.9°
Reaches altitude 10° 17:06:30 10° 165° (SSE) 2,300 5.4 -9.2°
Maximum altitude 17:11:35 87° 257° (WSW) 775 3.1 -10.1°
Drops below altitude 10° 17:16:42 10° 345° (NNW) 2,316 5.7 -10.9°
Sets 17:19:01 0° 346° (NNW) 3,247 6.4 -11.3°
